Fairbanks Eiels, AK

4:09 PM AKDT on October 19, 2017 (GMT -0800)
Eielson Air Force Base

Weather History for PAEI - March, 2014

Change the Weather History Date:

Sunday, March 9, 2014

  Actual Average Record
Temperature  
Mean Temperature -12 °F -  
Max Temperature 4 °F 19 °F 50 °F (1965)
Min Temperature -29 °F -4 °F -41 °F (1974)
Degree Days  
Heating Degree Days 78    
Moisture  
Dew Point -23 °F    
Average Humidity 69    
Maximum Humidity 100    
Minimum Humidity 37    
Precipitation  
Precipitation 0.00 in - - ()
Sea Level Pressure  
Sea Level Pressure 29.54 in    
Wind  
Wind Speed 2 mph (North)    
Max Wind Speed 8 mph    
Max Gust Speed -    
Visibility 9 miles    
Events      
Averages and records for this station are not official NWS values.
T = Trace of Precipitation, MM = Missing Value Source: NWS Daily Summary

Daily Weather History Graph

Daily Weather History Graph

Search for Another Location

Airport or City:

Trip Planner

Search our weather history database for the weather conditions in past years. The results will help you decide how hot, cold, wet, or windy it might be!

Date:

Astronomy

Mar. 09, 2014 Rise Set
Actual Time 8:27 AM AKDT 7:31 PM AKDT
Civil Twilight 7:39 AM AKDT 8:19 PM AKDT
Nautical Twilight 6:42 AM AKDT 9:16 PM AKDT
Astronomical Twilight 5:42 AM AKDT 10:18 PM AKDT
Moon 11:49 AM AKDT (3/9) 5:44 AM AKDT (3/9)
Length of Visible Light 12h 40m
Length of Day
11h 03m
Waxing Gibbous, 62% of the Moon is Illuminated
Mar 9
Waxing Gibbous
Mar 16
Full
Mar 23
Last Quarter
Mar 30
New
Apr 7
First Quarter

Hourly Weather History & Observations

Time (AKDT) Temp. Windchill Dew Point Humidity Pressure Visibility Wind Dir Wind Speed Gust Speed Precip Events Conditions
12:58 AM -14.3 °F -24.1 °F -20.6 °F 73% 29.46 in 10.0 mi Variable 3.5 mph - N/A   Clear
1:58 AM -18.0 °F - -23.6 °F 76% 29.46 in 10.0 mi Calm Calm - N/A   Clear
3:58 AM -22.7 °F - -28.3 °F 75% 29.47 in 10.0 mi Calm Calm - N/A   Clear
4:58 AM -25.1 °F - -29.9 °F 78% 29.47 in 10.0 mi ENE 1.2 mph - N/A   Clear
5:58 AM -27.6 °F - -29.9 °F 89% 29.48 in 10.0 mi Calm Calm - N/A   Clear
6:58 AM -27.4 °F - -29.9 °F 88% 29.48 in 10.0 mi Calm Calm - N/A   Clear
7:58 AM -29.7 °F - -30.1 °F 98% 29.49 in 10.0 mi Calm Calm - N/A   Clear
8:58 AM -29.2 °F - -29.2 °F 100% 29.52 in 7.0 mi SE 2.3 mph - N/A   Clear
9:13 AM -27.4 °F - -29.2 °F 91% 29.45 in 7.0 mi Calm Calm - N/A   Clear
9:43 AM -25.6 °F - -29.2 °F 83% 29.45 in 4.0 mi East 1.2 mph - N/A   Haze
9:58 AM -25.6 °F - -29.9 °F 80% 29.52 in 10.0 mi Calm Calm - N/A   Clear
10:13 AM -22.0 °F - -29.2 °F 69% 29.46 in 4.0 mi SE 2.3 mph - N/A   Haze
10:28 AM -22.0 °F - -27.4 °F 76% 29.47 in 10.0 mi Calm Calm - N/A   Clear
10:58 AM -16.4 °F - -22.4 °F 74% 29.53 in 10.0 mi Calm Calm - N/A   Clear
11:58 AM -10.1 °F - -16.4 °F 74% 29.53 in 10.0 mi Calm Calm - N/A   Clear
12:58 PM -6.9 °F - -15.5 °F 66% 29.54 in 10.0 mi Calm Calm - N/A   Clear
1:58 PM -3.1 °F - -13.9 °F 60% 29.55 in 10.0 mi Calm Calm - N/A   Clear
2:58 PM 3.6 °F - -17.3 °F 37% 29.56 in 10.0 mi Calm Calm - N/A   Clear
3:58 PM 4.3 °F -4.9 °F -16.6 °F 38% 29.57 in 10.0 mi North 4.6 mph - N/A   Clear
4:58 PM 2.7 °F -6.8 °F -16.1 °F 42% 29.59 in 10.0 mi North 4.6 mph - N/A   Clear
5:58 PM 3.0 °F -10.5 °F -17.0 °F 39% 29.59 in 10.0 mi NNW 8.1 mph - N/A   Clear
6:58 PM 1.6 °F -12.2 °F -17.5 °F 41% 29.60 in 10.0 mi NNW 8.1 mph - N/A   Clear
7:58 PM -1.1 °F -11.2 °F -16.8 °F 48% 29.62 in 10.0 mi NW 4.6 mph - N/A   Clear
8:58 PM -8.3 °F -23.0 °F -19.8 °F 57% 29.63 in 10.0 mi North 6.9 mph - N/A   Clear
9:58 PM -6.7 °F -15.5 °F -19.1 °F 55% 29.64 in 10.0 mi NNW 3.5 mph - N/A   Clear
10:58 PM -16.4 °F - -21.8 °F 76% 29.64 in 10.0 mi Calm Calm - N/A   Clear
11:58 PM -22.9 °F - -28.8 °F 74% 29.64 in 10.0 mi Calm Calm - N/A   Clear
12:58 AM -22.9 °F - -28.8 °F 74% 29.64 in 10.0 mi Calm Calm - N/A   Clear